This is the latest recevied weather packets stored in our database for station/object N4ASP-13. If no packets are shown the sender has not sent any weather packets the latest 10 day(s).
| Time | Temp. | Humidity | Pressure | Rain* | Wind** | Luminosity | Snow |
|---|---|---|---|---|---|---|---|
| 1778253596 | 16.67° C | 46% | 1018.1 hPa | 0 mm | - | 1000 W/m² | - |
| 1778253536 | 16.67° C | 45% | 1018.1 hPa | 0 mm | - | 997 W/m² | - |
| 1778253476 | 16.67° C | 50% | 1018.1 hPa | 0 mm | - | 997 W/m² | - |
| 1778253415 | 16.67° C | 48% | 1018.2 hPa | 0 mm | - | 993 W/m² | - |
| 1778253357 | 16.67° C | 49% | 1018.1 hPa | 0 mm | - | 990 W/m² | - |
| 1778253297 | 16.67° C | 49% | 1018.1 hPa | 0 mm | - | 988 W/m² | - |
| 1778253235 | 16.67° C | 48% | 1018.1 hPa | 0 mm | - | 988 W/m² | - |
| 1778253176 | 16.67° C | 49% | 1018.2 hPa | 0 mm | - | 984 W/m² | - |
| 1778253116 | 16.67° C | 47% | 1018.1 hPa | 0 mm | - | 984 W/m² | - |
| 1778253057 | 16.11° C | 46% | 1018.1 hPa | 0 mm | - | 983 W/m² | - |
| 1778252996 | 16.11° C | 47% | 1018.1 hPa | 0 mm | - | 981 W/m² | - |
| 1778252935 | 16.67° C | 48% | 1018.1 hPa | 0 mm | - | 979 W/m² | - |
| 1778252876 | 16.67° C | 46% | 1018.1 hPa | 0 mm | - | 976 W/m² | - |
| 1778252815 | 16.67° C | 51% | 1018.1 hPa | 0 mm | - | 972 W/m² | - |
| 1778252757 | 16.11° C | 52% | 1018.1 hPa | 0 mm | - | 970 W/m² | - |
| 1778252695 | 16.11° C | 49% | 1018.1 hPa | 0 mm | - | 969 W/m² | - |
| 1778252636 | 16.11° C | 47% | 1018.1 hPa | 0 mm | - | 967 W/m² | - |
| 1778252576 | 16.11° C | 48% | 1018.1 hPa | 0 mm | - | 965 W/m² | - |
| 1778252516 | 16.11° C | 49% | 1018.2 hPa | 0 mm | - | 962 W/m² | - |
| 1778252456 | 16.11° C | 48% | 1018.2 hPa | 0 mm | - | 960 W/m² | - |
| 1778252397 | 16.11° C | 48% | 1018.1 hPa | 0 mm | - | 958 W/m² | - |
| 1778252337 | 16.11° C | 49% | 1018.1 hPa | 0 mm | - | 956 W/m² | - |
| 1778252272 | 16.11° C | 50% | 1018.2 hPa | 0 mm | - | 951 W/m² | - |
| 1778252212 | 16.11° C | 51% | 1018.2 hPa | 0 mm | - | 953 W/m² | - |
| 1778252151 | 16.11° C | 49% | 1018.1 hPa | 0 mm | - | 951 W/m² | - |
* Rain latest hour (hover to see other rain measurements)
** Current wind speed in m/s (hover to see current wind gust speed)